TimeEST,TemperatureF,Dew PointF,Humidity,Sea Level PressureIn,VisibilityMPH,Wind Direction,Wind SpeedMPH,Gust SpeedMPH,PrecipitationIn,Events,Conditions,WindDirDegrees,DateUTC
12:15 AM,39.2,37.4,93,30.15,6.0,Calm,Calm,-,N/A,,Overcast,0,2011-12-06 05:15:00
12:35 AM,39.2,37.4,93,30.14,5.0,Calm,Calm,-,N/A,,Mostly Cloudy,0,2011-12-06 05:35:00
12:55 AM,39.2,37.4,93,30.13,5.0,Calm,Calm,-,N/A,,Overcast,0,2011-12-06 05:55:00
1:15 AM,39.2,37.4,93,30.12,6.0,Calm,Calm,-,N/A,,Overcast,0,2011-12-06 06:15:00
1:35 AM,39.2,37.4,93,30.11,6.0,Calm,Calm,-,N/A,,Overcast,0,2011-12-06 06:35:00
1:55 AM,41.0,37.4,87,30.11,7.0,Calm,Calm,-,N/A,,Overcast,0,2011-12-06 06:55:00
2:35 AM,41.0,37.4,87,30.10,7.0,Calm,Calm,-,N/A,,Overcast,0,2011-12-06 07:35:00
3:35 AM,41.0,37.4,87,30.08,6.0,Calm,Calm,-,N/A,,Overcast,0,2011-12-06 08:35:00
3:55 AM,42.8,39.2,87,30.08,6.0,West,3.5,-,N/A,,Overcast,270,2011-12-06 08:55:00
4:15 AM,46.4,44.6,93,30.08,10.0,Calm,Calm,-,N/A,,Overcast,0,2011-12-06 09:15:00
4:35 AM,44.6,41.0,87,30.07,10.0,Calm,Calm,-,N/A,,Overcast,0,2011-12-06 09:35:00
4:55 AM,44.6,42.8,93,30.06,10.0,WSW,4.6,-,N/A,,Overcast,240,2011-12-06 09:55:00
5:15 AM,46.4,44.6,93,30.06,10.0,WSW,3.5,-,N/A,,Overcast,250,2011-12-06 10:15:00
5:35 AM,46.4,44.6,93,30.05,10.0,West,5.8,-,N/A,,Overcast,280,2011-12-06 10:35:00
5:55 AM,46.4,42.8,87,30.06,5.0,WSW,4.6,-,N/A,,Overcast,240,2011-12-06 10:55:00
6:15 AM,46.4,44.6,93,30.05,8.0,Calm,Calm,-,N/A,,Overcast,0,2011-12-06 11:15:00
6:35 AM,46.4,44.6,93,30.05,6.0,Calm,Calm,-,N/A,,Overcast,0,2011-12-06 11:35:00
6:55 AM,48.2,46.4,93,30.05,5.0,Calm,Calm,-,N/A,,Mostly Cloudy,0,2011-12-06 11:55:00
7:35 AM,50.0,48.2,94,30.03,7.0,Calm,Calm,-,N/A,,Overcast,0,2011-12-06 12:35:00
7:55 AM,48.2,44.6,87,30.03,2.0,WSW,4.6,-,0.01,,Overcast,250,2011-12-06 12:55:00
8:15 AM,48.2,46.4,93,30.02,2.5,Calm,Calm,-,N/A,,Overcast,0,2011-12-06 13:15:00
8:55 AM,53.6,51.8,94,30.01,10.0,SW,8.1,-,N/A,,Overcast,220,2011-12-06 13:55:00
9:15 AM,53.6,51.8,94,30.01,10.0,SSW,8.1,-,N/A,,Overcast,200,2011-12-06 14:15:00
9:55 AM,53.6,51.8,94,30.00,10.0,SSW,12.7,18.4,N/A,,Overcast,200,2011-12-06 14:55:00
10:15 AM,53.6,51.8,94,29.99,10.0,SSW,15.0,20.7,N/A,,Overcast,200,2011-12-06 15:15:00
10:35 AM,55.4,51.8,88,29.99,10.0,SSW,11.5,-,N/A,,Overcast,200,2011-12-06 15:35:00
10:55 AM,55.4,51.8,88,29.97,10.0,SSW,10.4,18.4,N/A,,Overcast,210,2011-12-06 15:55:00
11:15 AM,57.2,51.8,82,29.97,10.0,SW,11.5,-,N/A,,Mostly Cloudy,230,2011-12-06 16:15:00
11:35 AM,57.2,53.6,88,29.97,10.0,SW,10.4,-,N/A,,Overcast,220,2011-12-06 16:35:00
12:35 PM,57.2,51.8,82,29.94,10.0,SSW,8.1,-,N/A,,Overcast,210,2011-12-06 17:35:00
12:55 PM,57.2,51.8,82,29.93,10.0,SW,6.9,-,N/A,,Overcast,230,2011-12-06 17:55:00
1:15 PM,57.2,53.6,88,29.93,10.0,WSW,4.6,-,N/A,,Overcast,240,2011-12-06 18:15:00
1:35 PM,57.2,53.6,88,29.93,10.0,WSW,6.9,-,N/A,,Overcast,240,2011-12-06 18:35:00
1:55 PM,57.2,53.6,88,29.92,10.0,West,4.6,-,N/A,,Overcast,260,2011-12-06 18:55:00
2:15 PM,57.2,53.6,88,29.93,10.0,West,3.5,-,N/A,,Overcast,270,2011-12-06 19:15:00
2:35 PM,57.2,53.6,88,29.92,10.0,Calm,Calm,-,N/A,,Overcast,0,2011-12-06 19:35:00
2:55 PM,53.6,50.0,88,29.92,10.0,East,5.8,-,N/A,,Overcast,100,2011-12-06 19:55:00
3:15 PM,53.6,50.0,88,29.92,10.0,East,4.6,-,N/A,,Overcast,90,2011-12-06 20:15:00
3:35 PM,51.8,50.0,94,29.92,7.0,East,5.8,-,N/A,,Overcast,80,2011-12-06 20:35:00
4:15 PM,53.6,50.0,88,29.93,7.0,Calm,Calm,-,N/A,,Overcast,0,2011-12-06 21:15:00
4:35 PM,53.6,50.0,88,29.92,5.0,Calm,Calm,-,N/A,,Overcast,0,2011-12-06 21:35:00
4:55 PM,53.6,50.0,88,29.92,8.0,Calm,Calm,-,N/A,,Overcast,0,2011-12-06 21:55:00
5:35 PM,53.6,50.0,88,29.92,4.0,Calm,Calm,-,N/A,,Overcast,0,2011-12-06 22:35:00
5:55 PM,53.6,51.8,94,29.92,5.0,WNW,3.5,-,N/A,,Overcast,300,2011-12-06 22:55:00
6:15 PM,53.6,51.8,94,29.92,7.0,Calm,Calm,-,N/A,,Overcast,0,2011-12-06 23:15:00
6:35 PM,53.6,50.0,88,29.92,7.0,Calm,Calm,-,N/A,,Overcast,0,2011-12-06 23:35:00
6:55 PM,51.8,48.2,88,29.92,9.0,Calm,Calm,-,N/A,,Overcast,0,2011-12-06 23:55:00
7:15 PM,51.8,50.0,94,29.92,7.0,Calm,Calm,-,N/A,,Overcast,0,2011-12-07 00:15:00
7:35 PM,51.8,50.0,94,29.91,5.0,Calm,Calm,-,N/A,,Overcast,0,2011-12-07 00:35:00
8:15 PM,51.8,48.2,88,29.91,8.0,Calm,Calm,-,N/A,,Overcast,0,2011-12-07 01:15:00
8:35 PM,51.8,48.2,88,29.90,5.0,Calm,Calm,-,N/A,,Overcast,0,2011-12-07 01:35:00
8:55 PM,51.8,48.2,88,29.90,5.0,Calm,Calm,-,N/A,,Overcast,0,2011-12-07 01:55:00
9:15 PM,51.8,48.2,88,29.90,3.0,Calm,Calm,-,N/A,,Overcast,0,2011-12-07 02:15:00
9:35 PM,51.8,48.2,88,29.90,1.2,Calm,Calm,-,N/A,,Overcast,0,2011-12-07 02:35:00
9:55 PM,51.8,48.2,88,29.90,3.0,WSW,4.6,-,0.07,,Overcast,250,2011-12-07 02:55:00
10:35 PM,51.8,48.2,88,29.90,2.0,SW,3.5,-,N/A,,Overcast,230,2011-12-07 03:35:00
10:55 PM,51.8,48.2,88,29.89,2.0,Calm,Calm,-,N/A,,Overcast,0,2011-12-07 03:55:00
11:15 PM,51.8,48.2,88,29.90,1.5,Calm,Calm,-,N/A,,Overcast,0,2011-12-07 04:15:00
11:35 PM,51.8,48.2,88,29.90,2.5,NW,3.5,-,0.02,,Overcast,310,2011-12-07 04:35:00